Dewpoint
74 72 72 70 62 56 50 49 51 52 54 56 56 57 58 58 59 58 68 69 67 66 67 70 74 74 75 74 76 76 76 76 76 76 76 75 76 76 76 75 75 75 75 74 74 74 73 74 73
69 69 71 63 50 52 48 52 54 52 55 56 56 56 56 58 60 64 65 66 66 64 65 68 75 74 74 75 74 75 74 74 75 75 75 75 75 76 75 75 75 74 74 74 73 73 73 74 74
69 67 65 55 46 43 46 50 51 52 53 54 54 56 58 58 60 63 65 65 65 65 66 71 74 74 74 75 75 76 75 74 74 74 74 74 75 75 74 74 74 74 74 73 73 73 73 73 74
65 61 58 33 35 44 48 48 50 50 52 54 55 55 57 59 60 62 63 63 64 65 67 72 74 74 74 75 76 75 75 76 75 74 74 75 75 74 74 74 74 74 73 73 73 73 73 74 74
62 55 45 31 34 41 48 49 49 50 51 52 54 56 57 60 62 62 63 63 64 66 66 68 74 74 74 75 76 76 75 75 75 74 74 75 74 74 74 74 73 72 72 72 73 73 73 73 73
55 43 36 28 32 38 46 48 48 49 51 52 55 56 60 62 62 62 63 64 65 66 65 69 74 74 74 75 76 75 75 75 76 75 75 74 74 73 74 72 72 72 72 72 73 72 72 72 72
50 48 37 31 34 34 40 45 45 48 51 52 56 56 60 61 62 63 65 65 65 66 67 69 70 74 75 76 75 75 75 75 75 75 75 74 73 73 72 71 71 72 73 73 73 72 72 72 72
45 41 32 41 32 32 39 42 43 46 49 53 55 56 58 62 63 64 65 65 65 66 66 68 70 70 73 73 76 75 75 74 73 74 74 74 74 74 72 71 72 72 72 72 72 72 72 72 72
40 43 36 35 44 36 39 39 44 48 50 51 53 56 59 62 62 63 65 65 65 67 67 66 67 72 73 73 74 75 74 73 73 74 74 73 71 71 71 74 72 72 72 72 72 72 73 72 73
38 50 38 34 45 38 39 39 43 46 48 50 52 56 60 62 61 62 63 64 63 65 66 66 70 69 69 66 73 72 69 68 69 69 71 69 72 72 68 71 73 73 73 73 73 73 74 73 71
33 44 41 36 36 42 39 40 42 43 45 49 52 56 59 61 61 61 62 62 61 63 64 67 71 74 69 72 68 68 67 67 67 70 70 69 69 70 69 73 71 71 73 72 72 72 71 67 66
29 34 33 35 37 39 39 41 41 40 43 47 52 56 58 60 60 60 60 61 62 64 65 66 70 73 72 72 66 66 65 65 65 67 73 72 69 70 69 72 72 73 73 70 72 71 68 68 68
27 30 29 30 34 36 42 42 40 40 42 48 53 55 57 59 60 60 60 61 62 63 64 65 68 72 73 74 67 67 67 64 64 66 70 69 67 74 72 74 69 70 72 72 70 72 69 69 69
27 27 27 29 29 35 40 40 43 42 45 49 54 54 56 57 59 60 60 61 61 63 64 65 68 72 73 72 74 71 69 70 65 65 67 72 70 75 69 75 72 71 70 74 71 72 69 71 70
26 26 30 31 30 34 38 39 40 44 48 49 53 55 55 56 57 60 60 61 62 63 65 66 67 70 72 73 74 70 67 66 66 65 70 71 72 72 74 71 71 67 74 72 73 73 73 70 61
24 26 27 32 32 34 38 38 43 45 47 47 51 54 55 56 56 59 60 61 63 64 66 67 65 67 70 73 73 70 68 71 69 69 72 72 73 74 74 70 70 72 70 73 71 70 68 61 59
26 24 27 32 34 39 39 43 43 47 45 47 49 52 54 56 57 60 60 61 62 65 67 68 68 67 71 76 72 72 74 69 74 72 68 74 76 75 72 70 72 72 72 69 69 68 70 60 59
27 26 27 36 33 39 38 43 44 47 46 44 48 50 53 54 56 59 61 62 63 65 68 70 69 73 74 74 79 70 68 70 70 69 67 72 72 74 73 70 72 72 70 69 72 70 64 63 61
26 27 26 28 31 36 38 38 43 47 47 45 47 48 51 53 56 58 61 62 63 65 68 71 73 77 73 70 75 70 67 69 67 67 76 74 74 75 74 71 73 71 71 72 68 64 65 60 62
24 25 27 29 32 34 36 38 41 47 47 48 47 47 49 51 53 58 61 61 62 65 69 73 75 77 76 72 74 71 70 67 65 68 74 72 75 74 74 74 70 71 66 68 67 66 61 59 61
24 24 26 27 38 38 36 37 38 41 48 49 47 48 49 49 50 56 60 62 63 65 69 73 76 77 77 77 75 74 75 70 70 68 70 71 73 73 74 73 73 71 67 56 67 65 64 59 61
22 24 25 25 34 34 33 31 39 37 40 47 48 48 48 49 51 54 59 62 62 65 68 74 77 78 77 78 74 77 70 67 63 65 65 69 74 72 72 74 70 70 63 69 66 63 65 65 60
22 23 25 26 31 39 30 29 36 36 37 41 46 49 48 48 50 52 56 61 62 64 66 71 77 78 78 78 77 72 73 66 65 63 73 75 76 71 69 70 70 68 62 68 68 66 67 64 60
20 22 25 25 25 26 31 31 33 36 37 38 41 47 50 49 49 54 55 59 61 63 65 70 77 79 79 79 77 77 77 73 66 67 66 67 67 69 70 69 70 68 66 67 66 67 67 66 65
18 21 22 23 22 22 27 30 40 34 35 36 36 39 46 51 49 51 56 57 62 65 67 70 76 78 78 77 77 77 77 78 76 73 68 70 62 64 73 72 71 67 69 67 67 68 67 65 63
17 19 20 27 22 22 27 27 29 35 32 33 34 31 36 47 49 49 54 58 63 64 68 70 74 77 78 77 78 79 78 71 70 73 68 65 63 64 74 71 70 69 67 67 68 63 62 66 63
14 17 20 21 24 22 23 27 29 33 34 32 31 31 32 42 48 50 51 55 61 63 68 70 74 76 77 75 78 78 78 77 72 75 75 68 71 64 67 70 69 68 66 67 67 61 65 64 64
9 14 18 22 28 25 22 26 25 33 33 32 33 31 33 38 47 49 50 53 58 60 65 69 72 75 75 75 76 76 77 78 77 78 76 74 72 72 71 71 70 68 68 68 69 65 66 66 61
9 9 18 20 22 23 22 24 28 35 36 34 33 31 31 37 45 49 50 52 56 58 62 65 69 73 74 74 75 76 75 76 77 76 76 76 74 74 72 73 71 68 68 68 69 67 65 65 67
12 13 13 20 30 23 25 22 26 29 31 32 33 33 32 37 44 49 50 52 54 58 59 61 64 66 70 73 75 76 76 76 75 77 77 77 76 75 73 72 71 68 67 66 68 66 64 63 63
Lifted_Index
-4 -5 -5 -5 -3 -1 -1 -2 -2 -2 -2 -1 -1 -1 -1 -2 -2 -2 -2 -2 -2 -1 -1 -2 -2 -3 -3 -4 -4 -5 -5 -5 -5 -5 -5 -6 -6 -6 -6 -6 -6 -6 -6 -6 -6 -6 -6 -6 -6
-5 -5 -5 -5 -3 -2 -2 -2 -2 -2 -2 -2 -2 -1 -1 -2 -2 -2 -2 -2 -1 -1 -1 -2 -2 -3 -3 -4 -4 -5 -5 -5 -5 -5 -5 -6 -6 -6 -7 -6 -6 -6 -6 -6 -6 -6 -6 -7 -7
-5 -5 -5 -4 -2 -2 -2 -2 -2 -2 -2 -2 -2 -2 -2 -2 -2 -2 -2 -2 -1 -1 -1 -2 -3 -3 -3 -4 -5 -5 -5 -5 -5 -6 -6 -6 -6 -7 -7 -7 -7 -6 -6 -6 -6 -6 -7 -7 -7
-5 -5 -4 -2 -1 -2 -2 -2 -2 -2 -2 -3 -3 -2 -2 -2 -2 -2 -2 -2 -2 -2 -2 -2 -3 -3 -3 -4 -5 -6 -6 -6 -6 -6 -6 -6 -7 -7 -7 -7 -7 -6 -6 -6 -6 -7 -7 -7 -7
-4 -4 -2 -1 0 -1 -1 -2 -2 -2 -2 -3 -3 -3 -3 -2 -2 -2 -2 -2 -2 -2 -2 -2 -3 -3 -4 -5 -5 -6 -6 -6 -7 -7 -7 -7 -7 -7 -7 -7 -7 -6 -6 -6 -7 -7 -7 -7 -7
-3 -3 -1 -0 1 1 -0 -1 -2 -2 -2 -3 -3 -3 -3 -3 -3 -3 -3 -3 -3 -3 -3 -3 -4 -4 -5 -5 -6 -6 -6 -7 -7 -7 -7 -7 -7 -7 -7 -7 -6 -6 -7 -7 -7 -6 -6 -6 -6
-2 -2 -1 -0 0 1 1 -1 -2 -2 -2 -3 -3 -3 -3 -4 -3 -3 -3 -3 -3 -3 -3 -4 -4 -5 -5 -6 -6 -6 -7 -7 -7 -7 -7 -7 -7 -7 -6 -6 -6 -6 -7 -7 -7 -6 -6 -6 -6
-1 -1 -1 -1 -0 1 1 0 -1 -1 -2 -3 -3 -3 -4 -4 -4 -4 -4 -4 -4 -4 -4 -4 -4 -5 -5 -6 -6 -6 -6 -6 -6 -6 -7 -6 -6 -6 -6 -6 -6 -6 -6 -6 -6 -6 -6 -6 -6
-0 -1 -1 -1 -1 -0 1 1 -0 -1 -2 -2 -3 -3 -4 -4 -4 -4 -4 -4 -4 -4 -4 -4 -5 -5 -5 -5 -6 -6 -6 -5 -5 -5 -5 -5 -5 -5 -5 -5 -5 -5 -6 -6 -6 -6 -5 -6 -6
-0 -1 -1 -1 -1 -1 -0 0 -0 -0 -1 -2 -2 -3 -4 -4 -4 -4 -4 -4 -4 -4 -4 -4 -5 -5 -5 -5 -5 -5 -4 -4 -4 -4 -4 -4 -5 -5 -4 -4 -5 -5 -5 -5 -5 -5 -5 -5 -5
-0 -1 -1 -1 -1 -1 -1 -1 -0 -0 -1 -1 -2 -3 -4 -4 -4 -4 -4 -4 -4 -4 -4 -4 -5 -5 -5 -5 -4 -4 -4 -3 -4 -4 -4 -4 -4 -4 -4 -4 -5 -5 -4 -5 -5 -5 -4 -4 -4
0 -0 -1 -1 -1 -2 -2 -1 -0 0 -0 -1 -2 -3 -3 -4 -4 -4 -4 -4 -4 -4 -4 -4 -5 -5 -5 -5 -4 -4 -3 -3 -3 -3 -4 -4 -4 -4 -4 -4 -4 -4 -4 -4 -4 -4 -4 -3 -3
0 -0 -1 -1 -1 -2 -2 -2 -0 1 0 -1 -2 -2 -3 -3 -4 -4 -4 -3 -3 -4 -4 -4 -4 -5 -5 -5 -4 -4 -3 -3 -3 -3 -4 -4 -4 -4 -4 -4 -4 -4 -4 -4 -4 -4 -4 -3 -3
-0 -0 -0 -0 -0 -1 -2 -2 -0 0 -0 -1 -2 -2 -3 -3 -3 -3 -3 -3 -3 -3 -3 -4 -4 -5 -5 -5 -5 -4 -4 -3 -3 -3 -3 -4 -4 -4 -5 -4 -4 -4 -4 -4 -4 -4 -4 -3 -3
0 -0 -0 -0 -0 -0 -1 -1 -1 -0 -1 -1 -2 -2 -2 -3 -3 -3 -3 -3 -3 -3 -3 -4 -4 -5 -5 -5 -5 -4 -4 -3 -3 -3 -3 -4 -4 -5 -5 -5 -4 -4 -4 -5 -5 -4 -4 -3 -2
0 0 -0 -0 -0 -0 -0 -0 -1 -1 -1 -1 -2 -2 -2 -2 -2 -2 -2 -3 -3 -3 -3 -3 -4 -4 -5 -5 -5 -5 -4 -4 -4 -4 -4 -5 -5 -5 -5 -5 -4 -4 -5 -5 -4 -4 -3 -2 -1
-0 -0 -1 -0 -0 -0 -0 -0 -1 -1 -1 -1 -1 -2 -2 -2 -2 -2 -2 -3 -3 -3 -3 -4 -4 -4 -5 -5 -5 -5 -5 -5 -5 -4 -4 -5 -5 -5 -5 -5 -5 -5 -4 -4 -4 -4 -2 -1 0
-0 -1 -1 -0 -0 -1 -1 -1 -1 -2 -1 -1 -0 -1 -1 -2 -2 -2 -3 -3 -3 -3 -4 -4 -4 -5 -5 -6 -6 -5 -5 -5 -5 -5 -5 -5 -5 -5 -5 -5 -5 -5 -4 -4 -3 -2 -1 -0 0
-1 -1 -1 -1 -0 -1 -1 -2 -2 -2 -2 -1 -0 -0 -1 -1 -2 -2 -3 -3 -3 -3 -4 -5 -5 -6 -6 -6 -5 -5 -5 -4 -4 -4 -5 -5 -6 -5 -5 -5 -5 -4 -4 -3 -2 -1 0 1 0
-1 -1 -1 -1 -1 -1 -1 -2 -2 -3 -2 -2 -1 -1 -0 -1 -1 -2 -3 -3 -3 -3 -4 -5 -6 -6 -6 -6 -6 -5 -5 -4 -4 -4 -5 -5 -6 -6 -6 -5 -5 -4 -3 -1 -1 -0 1 1 1
-1 -1 -1 -1 -1 -1 -1 -1 -2 -2 -3 -2 -2 -1 -1 -1 -1 -2 -3 -3 -3 -3 -4 -5 -6 -7 -7 -7 -6 -6 -5 -4 -4 -4 -4 -5 -6 -6 -6 -5 -5 -3 -2 -0 -0 -0 0 1 1
-0 -1 -1 -1 -1 -1 -1 -1 -1 -1 -2 -2 -2 -2 -1 -1 -1 -2 -3 -3 -3 -4 -4 -6 -7 -7 -7 -7 -6 -6 -5 -4 -3 -3 -4 -5 -6 -6 -5 -5 -4 -2 -1 0 -0 0 0 1 1
0 -0 -1 -1 -1 -1 -1 -1 -1 -1 -1 -2 -2 -2 -2 -1 -2 -2 -3 -4 -4 -4 -4 -6 -7 -8 -8 -8 -7 -6 -5 -4 -3 -3 -4 -5 -5 -5 -4 -4 -3 -1 -0 -0 -0 0 0 1 1
1 0 -1 -1 -1 -1 -1 -0 -1 -1 -1 -1 -2 -2 -2 -2 -2 -3 -3 -4 -4 -4 -5 -6 -7 -8 -8 -8 -8 -7 -7 -6 -4 -4 -4 -4 -4 -4 -4 -3 -3 -1 -0 -0 -0 -0 0 1 1
2 0 -1 -1 -1 -1 -1 -1 -0 -0 -1 -1 -1 -1 -2 -3 -3 -3 -3 -4 -4 -5 -5 -6 -8 -9 -9 -8 -8 -8 -8 -7 -6 -5 -5 -4 -3 -4 -4 -4 -3 -2 -1 -1 -1 -0 0 1 1
1 1 -0 -1 -1 -1 -1 -1 -1 -0 -1 -1 -1 -1 -2 -3 -3 -3 -3 -4 -5 -5 -6 -7 -8 -9 -9 -9 -9 -9 -9 -8 -7 -6 -6 -4 -3 -3 -4 -4 -3 -2 -2 -1 -1 -0 0 1 1
1 1 -0 -1 -1 -1 -1 -1 -1 -0 -0 -1 -1 -1 -1 -2 -3 -3 -3 -4 -4 -5 -6 -7 -8 -9 -9 -9 -9 -10 -9 -9 -8 -7 -7 -5 -4 -4 -4 -4 -4 -3 -2 -2 -1 -0 0 0 1
2 1 -0 -1 -1 -1 -1 -1 -1 -1 -0 -0 -0 -1 -1 -1 -3 -3 -3 -3 -4 -5 -6 -7 -8 -8 -9 -9 -9 -10 -10 -9 -9 -9 -8 -7 -6 -5 -5 -5 -4 -4 -3 -2 -2 -1 -1 -0 -0
2 1 -0 -1 -1 -1 -1 -1 -1 -1 -0 -0 -0 -1 -1 -1 -2 -3 -3 -3 -4 -4 -5 -6 -7 -7 -8 -8 -9 -9 -10 -10 -10 -9 -9 -8 -7 -6 -6 -5 -5 -3 -3 -2 -2 -2 -1 -1 -1
1 1 -0 -1 -1 -1 -1 -1 -1 -1 -1 -1 -1 -1 -1 -1 -2 -3 -3 -3 -3 -4 -4 -5 -6 -6 -7 -8 -9 -9 -10 -10 -10 -10 -9 -9 -8 -7 -6 -6 -5 -3 -2 -2 -2 -2 -1 -1 -1